[[{"header":{"parameterUnit":"m.s-1","parameterCategory":1,"la1":30.2991,"la2":30.254,"lo1":-89.0895,"lo2":-89.0444,"dy":0.0017,"dx":0.0017,"nx":28,"ny":28,"refTime":"2024-09-30T03:00:00:Z","depth":0,"parameterNumber":2,"parameterNumberName":"U-component_of_WINDS"},"data":[0,0,0,0,0,0,0,0,0,0,0,0,0,0,0,0,0,0,0,0,0,0,0,0,0,0,0,0,0,0,0,0,0,0,0,0,0,0,0,0,0,0,0,0,0,0,0,0,0,0,0,0,0,0,0,0,0,0,1.6431,1.6432,0,1.6496,1.6496,1.6497,1.6477,1.6476,1.6475,1.6473,1.6539,1.6542,1.6544,0,0,0,0,0,0,0,0,0,0,0,0,0,1.629,1.6292,1.6431,1.6432,1.6433,1.6496,1.6496,1.6497,1.6477,1.6476,1.6474,1.6473,1.6538,1.6541,1.6545,0,0,0,0,0,0,0,0,0,0,0,0,0,1.6352,1.6293,1.6431,1.6431,1.6431,1.6495,1.6496,1.6498,1.6478,1.6476,1.6474,1.6472,1.6536,1.6541,1.6545,1.6614,0,0,1.6559,1.6561,0,0,0,0,0,0,0,0,1.6349,1.6357,1.643,1.6431,1.6432,1.6476,1.647,1.6537,1.6478,1.646,1.6473,1.6471,1.652,1.6525,1.6542,1.6617,1.662,1.6559,1.6562,1.6564,1.6565,0,0,0,0,0,0,0,1.6344,1.6355,1.6457,1.6431,1.6432,1.6426,1.6433,1.6483,1.65,1.6462,1.646,1.6468,1.652,1.6537,1.6543,1.6621,1.6559,1.6563,1.6566,1.6568,1.6752,1.6755,0,0,0,0,0,0,1.634,1.6351,1.6455,1.6459,1.6384,1.6431,1.6438,1.6464,1.65,1.6503,1.647,1.6467,1.6531,1.6538,1.6545,1.6626,1.6564,1.6568,1.6571,1.675,1.6753,1.6755,0,0,0,0,0,0,1.6337,1.6349,1.6452,1.6405,1.6417,1.6435,1.6465,1.6466,1.6484,1.6506,1.6509,1.6485,1.6529,1.6539,1.6596,1.6628,1.657,1.6574,1.6748,1.6751,1.6754,1.6789,0,0,0,0,0,0,1.6333,1.6348,1.6375,1.6405,1.642,1.6503,1.6467,1.6469,1.6492,1.6489,1.6521,1.6524,1.6529,1.659,1.6601,1.6633,1.6578,1.6745,1.6749,1.6753,1.6785,1.6793,1.68,0,0,0,0,0,1.6328,1.6383,1.6377,1.6389,1.6454,1.6505,1.6513,1.6517,1.6495,1.6521,1.6535,1.6523,1.6623,1.6596,1.6608,1.6642,1.6743,1.6748,1.6753,1.6782,1.6792,1.68,0,0,0,0,0,0,1.6356,1.6387,1.638,1.6447,1.6473,1.6501,1.6535,1.6527,1.6561,1.6556,1.6559,1.6567,1.6625,1.664,1.6609,1.6709,1.668,1.6687,1.6698,1.6707,1.6714,1.6709,1.6582,0,0,0,0,0,1.637,1.6409,1.6434,1.649,1.6504,1.6517,1.6539,1.654,1.6567,1.6578,1.6596,1.6623,1.666,1.6685,1.672,1.6788,1.6793,1.6817,1.6825,1.6831,1.6837,1.6871,1.6882,1.6772,1.6772,1.6771,0,0,1.6399,1.6421,1.6446,1.6496,1.6517,1.6556,1.6527,1.657,1.6599,1.6585,1.664,1.6654,1.6684,1.6746,1.6774,1.676,1.6868,1.6837,1.6841,1.6845,1.6877,1.6888,1.6897,1.6775,1.6774,1.6774,0,0,1.6473,1.6494,1.6542,1.6563,1.6594,1.6602,1.6614,1.6643,1.6651,1.6706,1.6696,1.673,1.6794,1.6815,1.6835,1.6914,1.6904,1.6925,1.6964,1.6998,1.7006,1.7014,1.704,1.705,1.6932,1.6932,1.6932,0,1.6505,1.6565,1.6568,1.6612,1.6633,1.6622,1.667,1.669,1.6731,1.6746,1.673,1.6809,1.6828,1.6894,1.6913,1.693,1.6942,1.6921,1.7005,1.7013,1.702,1.7045,1.7055,1.6934,1.6934,1.6934,1.6934,0,1.6602,1.6643,1.6678,1.6718,1.6744,1.679,1.6798,1.6824,1.6822,1.6832,1.6887,1.6909,1.6948,1.6964,1.6963,1.7029,1.7019,1.7004,1.6974,1.7032,1.7056,1.7066,1.6938,1.6937,1.6936,1.6935,0,0,1.6696,1.6735,1.6747,1.6764,1.6797,1.6829,1.6873,1.6911,1.6932,1.6961,1.6997,1.7051,1.7036,1.7058,1.7059,1.7089,1.7147,1.7069,1.707,1.7082,1.7219,1.723,1.7241,1.7141,1.7143,1.7144,1.7216,0,1.677,1.6849,1.6852,1.6923,1.696,1.6949,1.6987,1.7011,1.7021,1.7053,1.7064,1.7101,1.708,1.7093,1.7122,1.7134,1.7175,1.7129,1.7174,1.7175,1.7165,1.7254,1.7265,1.7332,1.7226,1.7227,1.7229,0,1.6868,1.6899,1.6973,1.6999,1.7014,1.7049,1.7083,1.7114,1.714,1.7145,1.7169,1.7165,1.7209,1.7178,1.7238,1.7207,1.7225,1.7234,1.7236,1.724,1.7205,1.7258,1.7354,1.7363,1.7244,1.7242,1.7241,0,1.6927,1.6987,1.7038,1.7053,1.7085,1.7109,1.7123,1.7147,1.7169,1.7198,1.7212,1.7247,1.7265,1.7291,1.7296,1.7274,1.7356,1.7326,1.736,1.736,1.7377,1.7376,1.7476,1.7392,1.7391,1.7391,1.7391,0,1.7009,1.7055,1.7065,1.7097,1.7147,1.7149,1.7199,1.7211,1.7232,1.7265,1.7258,1.7289,1.7294,1.7326,1.7331,1.7378,1.7387,1.7392,1.7392,1.7392,1.7391,1.7403,1.7398,1.7394,1.7393,1.7393,1.7392,0,1.7083,1.7092,1.7147,1.7172,1.7179,1.7214,1.7235,1.7265,1.7273,1.7315,1.7325,1.7339,1.7376,1.7383,1.7428,1.743,1.7487,1.7483,1.7478,1.7477,1.751,1.7506,1.762,1.7634,1.7542,1.7543,1.7544,0,1.7134,1.7169,1.7197,1.7218,1.7233,1.7268,1.729,1.7294,1.7317,1.7348,1.7373,1.7409,1.7439,1.7498,1.7511,1.7545,1.7541,1.7578,1.7546,1.7544,1.7539,1.7537,1.7539,1.7584,1.7585,1.7586,1.7587,0,1.7224,1.7226,1.7258,1.7291,1.7317,1.7343,1.7368,1.7386,1.7392,1.7418,1.7456,1.7478,1.7522,1.7558,1.7591,1.7604,1.7596,1.7597,1.7606,1.7606,1.76,1.7602,1.7493,1.7594,1.7594,1.7593,1.7593,1.7592,1.7287,1.7316,1.734,1.7375,1.7394,1.7417,1.7445,1.7457,1.7488,1.7524,1.7524,1.7565,1.7588,1.7631,1.7647,1.7678,1.7666,1.768,1.7684,1.7687,1.7689,1.7596,1.7684,1.7684,1.7684,1.7684,1.7684,0,1.7375,1.7389,1.7421,1.7456,1.7483,1.7473,1.7499,1.7522,1.7558,1.758,1.7609,1.7651,1.7685,1.77,1.7733,1.7755,1.7752,1.7763,1.7761,1.7764,1.7699,1.7686,1.7765,1.7765,1.7765,1.7765,1.7765,1.7765,1.7424,1.7472,1.7477,1.7534,1.7548,1.7587,1.7603,1.7623,1.7641,1.7688,1.7716,1.7726,1.7745,1.7779,1.7809,1.7812,1.7824,1.7837,1.7839,1.7777,1.7769,1.7761,1.7749,1.784,1.784,1.7901,1.7902,1.7902]},{"header":{"parameterUnit":"m.s-1","parameterCategory":1,"la1":30.2991,"la2":30.254,"lo1":-89.0895,"lo2":-89.0444,"dy":0.0017,"dx":0.0017,"nx":28,"ny":28,"refTime":"2024-09-30T03:00:00:Z","depth":0,"parameterNumber":3,"parameterNumberName":"V-component_of_WINDS"},"data":[0,0,0,0,0,0,0,0,0,0,0,0,0,0,0,0,0,0,0,0,0,0,0,0,0,0,0,0,0,0,0,0,0,0,0,0,0,0,0,0,0,0,0,0,0,0,0,0,0,0,0,0,0,0,0,0,0,0,0.8133,0.8133,0,0.8145,0.8145,0.8146,0.8122,0.8121,0.8121,0.812,0.8133,0.8134,0.8135,0,0,0,0,0,0,0,0,0,0,0,0,0,0.8088,0.8089,0.8133,0.8133,0.8133,0.8145,0.8145,0.8146,0.8122,0.8121,0.812,0.812,0.8132,0.8133,0.8135,0,0,0,0,0,0,0,0,0,0,0,0,0,0.8105,0.8089,0.8133,0.8123,0.8122,0.8145,0.8145,0.8146,0.8122,0.8121,0.812,0.8119,0.8132,0.8133,0.8135,0.8168,0,0,0.814,0.814,0,0,0,0,0,0,0,0,0.8104,0.8106,0.8124,0.8124,0.8123,0.8131,0.8134,0.8153,0.8123,0.8122,0.812,0.8119,0.8133,0.8134,0.8139,0.8169,0.8169,0.814,0.8141,0.8142,0.8142,0,0,0,0,0,0,0,0.8103,0.8106,0.8138,0.8125,0.8124,0.8118,0.8119,0.8138,0.8134,0.8122,0.8121,0.8122,0.8132,0.8138,0.8139,0.8169,0.814,0.8141,0.8142,0.8143,0.8224,0.8225,0,0,0,0,0,0,0.8103,0.8105,0.8137,0.8138,0.811,0.8119,0.8121,0.813,0.8134,0.8133,0.8123,0.8121,0.8136,0.8138,0.814,0.8178,0.8142,0.8143,0.8144,0.8223,0.8224,0.8226,0,0,0,0,0,0,0.8102,0.8106,0.8137,0.8121,0.8125,0.8121,0.8132,0.813,0.8136,0.8135,0.8134,0.813,0.8135,0.8138,0.8161,0.8178,0.8144,0.8145,0.8221,0.8223,0.8225,0.8254,0,0,0,0,0,0,0.8101,0.8106,0.8119,0.8122,0.8126,0.8158,0.8133,0.8132,0.8139,0.8136,0.814,0.814,0.8134,0.8158,0.8162,0.8179,0.8146,0.822,0.8222,0.8224,0.8252,0.8257,0.8261,0,0,0,0,0,0.8099,0.8127,0.812,0.8124,0.8142,0.8159,0.8162,0.8154,0.814,0.8153,0.8152,0.814,0.8175,0.8161,0.8165,0.8183,0.8219,0.8222,0.8224,0.825,0.8256,0.8261,0,0,0,0,0,0,0.8127,0.8127,0.8119,0.8149,0.8154,0.8155,0.8171,0.8161,0.8171,0.8168,0.8159,0.816,0.8184,0.8186,0.817,0.8214,0.8194,0.8198,0.8212,0.8218,0.8223,0.8222,0.8148,0,0,0,0,0,0.8137,0.8151,0.815,0.8177,0.818,0.8175,0.8182,0.8176,0.8181,0.8184,0.8184,0.819,0.8201,0.821,0.8221,0.8251,0.8251,0.8266,0.827,0.8274,0.8278,0.8292,0.8298,0.8235,0.8235,0.8234,0,0,0.8157,0.8159,0.8169,0.8182,0.8186,0.82,0.8177,0.8194,0.8204,0.8186,0.8208,0.8208,0.8213,0.824,0.8252,0.8242,0.8295,0.8278,0.8281,0.8282,0.8296,0.8302,0.8307,0.8236,0.8236,0.8236,0,0,0.8201,0.8204,0.8225,0.8229,0.8234,0.823,0.8235,0.8237,0.8237,0.8258,0.8244,0.8256,0.8278,0.8281,0.8286,0.8329,0.8318,0.8333,0.8358,0.8372,0.8377,0.8381,0.8396,0.8401,0.8336,0.8336,0.8336,0,0.8225,0.8247,0.8238,0.8255,0.8261,0.8244,0.8265,0.8268,0.8277,0.8281,0.827,0.8295,0.8298,0.8324,0.8334,0.8339,0.8344,0.8333,0.8377,0.8381,0.8385,0.8399,0.8405,0.8338,0.8338,0.8338,0.8337,0,0.8276,0.8291,0.8308,0.8315,0.8323,0.8342,0.8335,0.8344,0.8336,0.8333,0.8354,0.8356,0.8367,0.8372,0.8366,0.8397,0.8391,0.8379,0.8359,0.8393,0.8406,0.8411,0.834,0.834,0.8339,0.8339,0,0,0.834,0.8341,0.8347,0.8349,0.8352,0.8364,0.8381,0.8391,0.8398,0.8404,0.8418,0.8435,0.8423,0.8428,0.8422,0.8434,0.8467,0.842,0.842,0.8428,0.85,0.851,0.8516,0.8459,0.846,0.8461,0.85,0,0.8383,0.8413,0.8404,0.8434,0.8447,0.843,0.8445,0.8448,0.8445,0.8455,0.8452,0.8465,0.8448,0.8451,0.8463,0.846,0.8481,0.8457,0.8471,0.8472,0.8471,0.8523,0.8533,0.857,0.8505,0.8506,0.8506,0,0.8438,0.8444,0.8476,0.8475,0.848,0.8493,0.8501,0.8511,0.8513,0.851,0.8515,0.8505,0.8521,0.8501,0.8523,0.8507,0.8512,0.8511,0.8513,0.8514,0.8491,0.8525,0.8582,0.8587,0.8514,0.8513,0.8513,0,0.848,0.8497,0.8517,0.852,0.852,0.853,0.853,0.8531,0.8537,0.8543,0.8547,0.8555,0.8559,0.8565,0.8557,0.8544,0.858,0.8559,0.8578,0.8578,0.8587,0.8586,0.8645,0.859,0.859,0.859,0.859,0,0.8529,0.8549,0.8536,0.8549,0.8569,0.8558,0.8579,0.8577,0.8578,0.859,0.8576,0.8587,0.8575,0.8585,0.8579,0.8597,0.86,0.8597,0.8595,0.8598,0.8599,0.8602,0.8599,0.8591,0.8591,0.8591,0.859,0,0.858,0.8573,0.8594,0.8591,0.8591,0.8606,0.8603,0.8615,0.861,0.8624,0.8627,0.862,0.8631,0.8623,0.8634,0.863,0.8654,0.8648,0.8653,0.8651,0.867,0.8668,0.8732,0.874,0.868,0.8681,0.8681,0,0.8612,0.8627,0.8625,0.8631,0.8632,0.8642,0.8648,0.8637,0.8643,0.8646,0.8656,0.8665,0.8672,0.8689,0.8685,0.8693,0.8687,0.8709,0.8688,0.8691,0.8687,0.8686,0.8687,0.8714,0.8714,0.8715,0.8715,0,0.8669,0.8664,0.8672,0.8679,0.8685,0.869,0.8693,0.8699,0.8688,0.8695,0.8705,0.871,0.872,0.8729,0.8735,0.8735,0.8723,0.8722,0.8726,0.873,0.8731,0.873,0.8664,0.872,0.872,0.872,0.8719,0.8719,0.8711,0.8723,0.8723,0.8731,0.8732,0.8736,0.8745,0.8741,0.8749,0.8756,0.8749,0.8761,0.8761,0.8768,0.8769,0.8778,0.8769,0.8776,0.8777,0.8779,0.8781,0.873,0.8779,0.8779,0.8779,0.8779,0.8778,0,0.8767,0.8765,0.8774,0.8778,0.8785,0.8772,0.8775,0.8781,0.8792,0.8793,0.8799,0.881,0.8818,0.8814,0.8821,0.8829,0.8823,0.8831,0.883,0.883,0.879,0.8785,0.8835,0.8835,0.8835,0.8835,0.8835,0.8835,0.8797,0.8815,0.8809,0.8827,0.8825,0.8836,0.8839,0.8841,0.8842,0.8854,0.8861,0.8857,0.8856,0.8862,0.8869,0.8867,0.887,0.888,0.8876,0.8839,0.8833,0.8828,0.8823,0.888,0.8881,0.8916,0.8916,0.8916]}]]